Regional Weather Roundup
Issued by NWS Green Bay, WI

Home | Current Version | Previous Version | Graphics & Text | Print | Product List | Glossary Off
Versions: 1 2 3 4 5 6 7 8 9 10 11 12 13 14 15 16 17 18 19 20 21 22 23 24 25 26 27 28 29 30 31 32 33 34 35 36 37 38 39 40 41 42 43 44 45 46 47 48 49 50

000
ASUS43 KGRB 191059
RWRGRB

NORTH-CENTRAL AND NORTHEAST WISCONSIN REGIONAL WEATHER ROUNDUP
NATIONAL WEATHER SERVICE GREEN BAY WI
500 AM CST FRI DEC 19 2014

WIZ005-009-010>012-018-019-191200-
NORTH CENTRAL WISCONSIN

CITY           SKY/WX    TMP DP  RH WIND       PRES   REMARKS
IRONWOOD       PTCLDY     5   3  92 CALM      30.22S
MANITOWISH WTR NOT AVBL
ARBOR VITAE    NOT AVBL
EAGLE RIVER    NOT AVBL
LAND O LAKES   NOT AVBL
RHINELANDER    FOG        3   1  91 CALM      30.22F VSB 1/2
PHILLIPS       NOT AVBL
ANTIGO         NOT AVBL
TOMAHAWK       NOT AVBL
MERRILL        NOT AVBL
$$

WIZ013-073-191200-
NORTHEAST WISCONSIN

CITY           SKY/WX    TMP DP  RH WIND       PRES   REMARKS
IRON MOUNTAIN  MOCLDY     2  -1  88 N3        30.25R
MARINETTE      PTCLDY    16  12  86 NW5       30.27S WCI   9
$$

WIZ017-030-035>037-045-191200-
CENTRAL WISCONSIN

CITY           SKY/WX    TMP DP  RH WIND       PRES   REMARKS
MEDFORD        NOT AVBL
WAUSAU         PTCLDY    16  13  88 NW3       30.24S
MOSINEE        NOT AVBL
MARSHFIELD     CLOUDY    24  20  84 CALM      30.24F
WISC RAPIDS    CLOUDY    23  19  85 CALM      30.28S
STEVENS POINT  NOT AVBL
WAUPACA        NOT AVBL
SHAWANO        NOT AVBL
CLINTONVILLE   CLEAR     16  14  93 CALM      30.28R
$$

WIZ038-039-048-051-191200-
FOX VALLEY

CITY           SKY/WX    TMP DP  RH WIND       PRES   REMARKS
NWS GREEN BAY  CLEAR     17  15  92 CALM      30.28S
APPLETON       NOT AVBL
OSHKOSH        PTCLDY    19  15  84 W3        30.28R
FOND DU LAC    CLEAR     16  12  84 CALM      30.28R
$$

WIZ022-050-052-191200-
EAST CENTRAL WISCONSIN

CITY           SKY/WX    TMP DP  RH WIND       PRES   REMARKS
STURGEON BAY   CLEAR     23  19  86 N3        30.28S
MANITOWOC      NOT AVBL
SHEBOYGAN      CLOUDY    22  18  85 W8        30.27R
$$

LMZ563-521-522-541>543-191200-
LAKESHORE

STATION/POSITION TIME  TEMP    WIND        PRES    VSBY  WAVE
                       AIR SEA DIR/SP/G                  HT/PER
                 (UTC) (F)     (DEG/KT/KT) (MB)    (MI)  (FT/S)
SHEBOYGAN LKSHOR 1000   24 34  290/  9/ 10 1026.0S
KEWAUNEE LKSHORE 1000   22     300/  3/  6 1024.0S
ALGOMA MARINA    1000          340/  8/  9   N/A
NORTHPORT PIER   1000   28     340/  7/  8 1025.1S
SISTER BAY LKSHO 1000             CALM       N/A
CHAMBERS ISLAND  1000   24     310/  7/  9 1025.1F
MENOMINEE LKSHOR 1000   18     280/  4/  5 1025.8S
$$



USA.gov is the U.S. government's official web portal to all federal, state and local government web resources and services.